SAS2098 ESGG-EFHK

Flight info

Callsign SAS2098
Flight time N/A
Altitude 39000
Route LABAN N873 DETSO DCT TUSNI DCT RIRIP Y364 LAKUT
Aircraft A20N/M-SDE2E3FGHIRWXY/LB1

Departure

Time 2026-04-30 21:10
Airport Göteborg Landvetter Airport (ESGG)

Arrival

Time N/A
Airport Helsinki Vantaa Airport (EFHK)
Time Latitude Longitude Altitude Speed Heading
2026-04-30 20:54 57.67051 12.29560 532 ft 0 kts 116°
2026-04-30 21:02 57.67055 12.29545 532 ft 2 kts 115°
2026-04-30 21:02 57.67062 12.29517 532 ft 2 kts 113°
2026-04-30 21:02 57.67068 12.29488 532 ft 2 kts 108°
2026-04-30 21:02 57.67072 12.29459 532 ft 2 kts 90°
2026-04-30 21:03 57.67066 12.29432 532 ft 2 kts 35°
2026-04-30 21:03 57.67062 12.29427 532 ft 0 kts 29°
2026-04-30 21:05 57.67078 12.29444 532 ft 5 kts 28°
2026-04-30 21:05 57.67122 12.29486 533 ft 9 kts 25°
2026-04-30 21:05 57.67181 12.29537 533 ft 7 kts 13°
2026-04-30 21:06 57.67198 12.29515 534 ft 5 kts 310°
2026-04-30 21:06 57.67229 12.29424 534 ft 11 kts 316°
2026-04-30 21:06 57.67297 12.29419 534 ft 12 kts 24°
2026-04-30 21:06 57.67388 12.29480 535 ft 13 kts 352°
2026-04-30 21:07 57.67433 12.29384 535 ft 11 kts 294°
2026-04-30 21:07 57.67459 12.29267 535 ft 1 kts 278°
2026-04-30 21:07 57.67459 12.29262 535 ft 2 kts 278°
2026-04-30 21:08 57.67461 12.29156 534 ft 14 kts 274°
2026-04-30 21:08 57.67461 12.29049 533 ft 3 kts 216°
2026-04-30 21:08 57.67437 12.29027 533 ft 0 kts 206°
2026-04-30 21:09 57.67436 12.29026 533 ft 0 kts 206°
2026-04-30 21:09 57.67400 12.28992 533 ft 28 kts 206°
2026-04-30 21:09 57.67007 12.28634 532 ft 97 kts 206°
2026-04-30 21:10 57.66200 12.27897 594 ft 149 kts 206°
2026-04-30 21:10 57.65248 12.27044 1182 ft 156 kts 208°
2026-04-30 21:10 57.64220 12.26179 1698 ft 170 kts 208°
2026-04-30 21:10 57.63055 12.25281 2215 ft 192 kts 202°
2026-04-30 21:11 57.61641 12.25442 2666 ft 217 kts 166°
2026-04-30 21:11 57.60198 12.26528 3246 ft 230 kts 159°
2026-04-30 21:11 57.58716 12.27780 4032 ft 236 kts 153°
2026-04-30 21:11 57.57433 12.29687 4912 ft 239 kts 125°
2026-04-30 21:12 57.56857 12.32569 5675 ft 246 kts 90°
2026-04-30 21:12 57.57181 12.35742 6180 ft 261 kts 68°
2026-04-30 21:12 57.57875 12.38938 6943 ft 269 kts 65°
2026-04-30 21:12 57.58618 12.42185 7793 ft 274 kts 65°
2026-04-30 21:13 57.59361 12.45500 8654 ft 281 kts 66°
2026-04-30 21:13 57.60106 12.48906 9518 ft 286 kts 66°
2026-04-30 21:13 57.60853 12.52374 10397 ft 290 kts 67°
2026-04-30 21:13 57.61669 12.55899 10949 ft 305 kts 60°
2026-04-30 21:14 57.62921 12.59181 11274 ft 324 kts 44°
2026-04-30 21:14 57.64710 12.61901 11784 ft 338 kts 34°
2026-04-30 21:14 57.66667 12.64405 12512 ft 344 kts 33°
2026-04-30 21:14 57.68667 12.66911 13337 ft 348 kts 33°
2026-04-30 21:15 57.70690 12.69459 14153 ft 352 kts 33°
2026-04-30 21:15 57.72731 12.72047 14898 ft 356 kts 33°
2026-04-30 21:15 57.74786 12.74665 15684 ft 359 kts 33°
2026-04-30 21:15 57.76855 12.77310 16467 ft 361 kts 33°
2026-04-30 21:16 57.78911 12.79945 17224 ft 364 kts 33°
2026-04-30 21:16 57.81015 12.82646 18003 ft 367 kts 33°
2026-04-30 21:16 57.83146 12.85386 18588 ft 376 kts 33°
2026-04-30 21:16 57.85309 12.88174 19334 ft 376 kts 32°
2026-04-30 21:17 57.87459 12.90950 20116 ft 375 kts 32°
2026-04-30 21:17 57.89610 12.93737 20787 ft 377 kts 33°
2026-04-30 21:17 57.91612 12.96919 21427 ft 383 kts 44°
2026-04-30 21:17 57.93294 13.00849 22072 ft 388 kts 52°
2026-04-30 21:18 57.94783 13.05118 22702 ft 393 kts 56°
2026-04-30 21:18 57.96162 13.09585 23315 ft 396 kts 58°
2026-04-30 21:18 57.97487 13.14177 23932 ft 400 kts 59°
2026-04-30 21:18 57.98793 13.18823 24420 ft 403 kts 59°
2026-04-30 21:19 58.00109 13.23521 24914 ft 405 kts 59°
2026-04-30 21:19 58.01438 13.28237 25379 ft 408 kts 59°
2026-04-30 21:19 58.02781 13.32965 25857 ft 410 kts 58°
2026-04-30 21:19 58.04121 13.37655 26318 ft 412 kts 58°
2026-04-30 21:20 58.05487 13.42423 26768 ft 414 kts 58°
2026-04-30 21:20 58.06862 13.47220 27212 ft 417 kts 58°
2026-04-30 21:20 58.08248 13.52060 27652 ft 419 kts 58°
2026-04-30 21:20 58.09636 13.56917 28089 ft 421 kts 58°
2026-04-30 21:21 58.11037 13.61830 28500 ft 423 kts 58°
2026-04-30 21:21 58.12431 13.66732 28967 ft 424 kts 58°
2026-04-30 21:21 58.15214 13.76558 29800 ft 428 kts 58°
2026-04-30 21:22 58.16621 13.81538 30175 ft 430 kts 58°
2026-04-30 21:22 58.20858 13.96603 31379 ft 430 kts 58°
2026-04-30 21:23 58.22250 14.01554 31725 ft 431 kts 58°
2026-04-30 21:23 58.23657 14.06551 31566 ft 427 kts 58°
2026-04-30 21:23 58.26432 14.16493 30535 ft 423 kts 58°
2026-04-30 21:24 58.27799 14.21457 30374 ft 424 kts 58°
2026-04-30 21:24 58.29166 14.26434 30359 ft 425 kts 58°
2026-04-30 21:24 58.32370 14.35716 30240 ft 414 kts 39°
2026-04-30 21:25 58.37308 14.40699 28969 ft 402 kts 18°
2026-04-30 21:25 58.39949 14.42401 28397 ft 400 kts 17°
2026-04-30 21:25 58.42582 14.44072 27828 ft 397 kts 17°
2026-04-30 21:26 58.47788 14.47387 26761 ft 391 kts 17°
2026-04-30 21:26 58.50368 14.49037 26249 ft 389 kts 17°
2026-04-30 21:27 58.55443 14.52364 25385 ft 381 kts 17°
2026-04-30 21:27 58.57941 14.54011 24887 ft 379 kts 17°
2026-04-30 21:27 58.60437 14.55663 24381 ft 377 kts 17°
2026-04-30 21:28 58.65339 14.58929 23333 ft 373 kts 18°
2026-04-30 21:28 58.67701 14.60977 23000 ft 372 kts 27°
2026-04-30 21:28 58.71754 14.67264 22466 ft 377 kts 41°
2026-04-30 21:29 58.73607 14.70842 22207 ft 377 kts 42°
2026-04-30 21:29 58.79044 14.81658 21427 ft 375 kts 42°
2026-04-30 21:30 58.82657 14.88905 20917 ft 373 kts 42°
2026-04-30 21:31 58.88032 14.99737 20333 ft 370 kts 43°
2026-04-30 21:31 58.91677 15.07095 20333 ft 400 kts 43°
2026-04-30 21:32 58.95719 15.15287 20333 ft 437 kts 43°
2026-04-30 21:32 58.97830 15.19587 20323 ft 442 kts 43°
2026-04-30 21:32 58.99953 15.23925 20320 ft 443 kts 43°
2026-04-30 21:32 59.02081 15.28279 20320 ft 445 kts 43°
2026-04-30 21:33 59.04182 15.32585 20317 ft 445 kts 43°
2026-04-30 21:33 59.08451 15.41355 20285 ft 444 kts 43°
2026-04-30 21:33 59.10529 15.45645 20041 ft 427 kts 43°
2026-04-30 21:34 59.12509 15.49744 19775 ft 404 kts 43°
2026-04-30 21:34 59.16181 15.57356 19310 ft 371 kts 43°
2026-04-30 21:34 59.17930 15.60981 19061 ft 362 kts 43°
2026-04-30 21:35 59.19653 15.64553 18825 ft 360 kts 43°
2026-04-30 21:35 59.21369 15.68116 18588 ft 360 kts 43°
2026-04-30 21:35 59.23085 15.71687 18324 ft 360 kts 43°
2026-04-30 21:35 59.24800 15.75262 18056 ft 361 kts 43°
2026-04-30 21:36 59.26494 15.78800 17793 ft 360 kts 43°
2026-04-30 21:36 59.28204 15.82381 17523 ft 359 kts 43°
2026-04-30 21:37 59.33303 15.93090 16745 ft 356 kts 43°
2026-04-30 21:37 59.34989 15.96643 16488 ft 355 kts 43°
2026-04-30 21:37 59.36646 16.00140 16237 ft 354 kts 43°
2026-04-30 21:37 59.38320 16.03677 15987 ft 353 kts 43°
2026-04-30 21:38 59.39987 16.07204 15739 ft 352 kts 43°
2026-04-30 21:38 59.41649 16.10728 15490 ft 351 kts 43°
2026-04-30 21:38 59.43305 16.14245 15244 ft 350 kts 43°
2026-04-30 21:38 59.44957 16.17758 15002 ft 349 kts 43°
2026-04-30 21:39 59.46046 16.20077 14851 ft 348 kts 43°
2026-04-30 21:39 59.48231 16.24736 14529 ft 349 kts 43°
2026-04-30 21:39 59.49874 16.28246 14295 ft 348 kts 43°
2026-04-30 21:39 59.51513 16.31753 14050 ft 347 kts 43°
2026-04-30 21:40 59.52616 16.34117 13865 ft 346 kts 43°
2026-04-30 21:40 59.54224 16.37566 13620 ft 345 kts 44°
2026-04-30 21:40 59.55844 16.41047 13357 ft 344 kts 44°
2026-04-30 21:40 59.57464 16.44533 13091 ft 343 kts 44°
2026-04-30 21:41 59.59073 16.48001 12834 ft 342 kts 44°
2026-04-30 21:41 59.60676 16.51460 12592 ft 340 kts 44°
2026-04-30 21:41 59.62265 16.54898 12338 ft 336 kts 44°
2026-04-30 21:41 59.63838 16.58304 12085 ft 334 kts 44°
2026-04-30 21:42 59.65403 16.61697 11835 ft 333 kts 44°
2026-04-30 21:42 59.66940 16.65033 11591 ft 332 kts 44°
2026-04-30 21:42 59.68495 16.68413 11341 ft 331 kts 44°
2026-04-30 21:42 59.70045 16.71788 11116 ft 330 kts 44°
2026-04-30 21:43 59.71588 16.75154 10870 ft 329 kts 44°
2026-04-30 21:43 59.73124 16.78509 10623 ft 328 kts 44°
2026-04-30 21:43 59.74652 16.81851 10390 ft 327 kts 44°
2026-04-30 21:43 59.76171 16.85179 10156 ft 322 kts 44°
2026-04-30 21:44 59.77632 16.88390 9876 ft 311 kts 44°
2026-04-30 21:44 59.79058 16.91529 9597 ft 301 kts 44°
2026-04-30 21:44 59.80402 16.94649 9342 ft 294 kts 51°
2026-04-30 21:44 59.81365 16.98154 9275 ft 287 kts 66°
2026-04-30 21:45 59.81763 17.02051 9282 ft 291 kts 83°
2026-04-30 21:45 59.81771 17.06097 9273 ft 294 kts 88°
2026-04-30 21:45 59.81672 17.10168 9277 ft 296 kts 90°
2026-04-30 21:45 59.81546 17.14248 9285 ft 296 kts 90°
2026-04-30 21:46 59.81412 17.18330 9061 ft 295 kts 90°
2026-04-30 21:46 59.81276 17.22388 8805 ft 294 kts 90°
2026-04-30 21:46 59.81139 17.26383 8554 ft 292 kts 90°
2026-04-30 21:46 59.81001 17.30381 8331 ft 286 kts 90°
2026-04-30 21:47 59.80864 17.34294 8104 ft 281 kts 90°
2026-04-30 21:47 59.80729 17.38168 7775 ft 280 kts 90°
2026-04-30 21:47 59.80594 17.41962 7601 ft 269 kts 90°
2026-04-30 21:47 59.80464 17.45575 7407 ft 256 kts 90°
2026-04-30 21:48 59.80340 17.49000 7064 ft 249 kts 90°
2026-04-30 21:48 59.80218 17.52427 6622 ft 248 kts 90°
2026-04-30 21:48 59.80096 17.55848 6125 ft 248 kts 90°
2026-04-30 21:48 59.79972 17.59254 5784 ft 246 kts 90°
2026-04-30 21:49 59.79847 17.62625 5555 ft 239 kts 90°
2026-04-30 21:49 59.79726 17.65836 5342 ft 228 kts 90°
2026-04-30 21:49 59.79609 17.68942 5292 ft 224 kts 90°
2026-04-30 21:49 59.79494 17.71996 5274 ft 219 kts 90°
2026-04-30 21:50 59.79381 17.74971 5067 ft 211 kts 90°
2026-04-30 21:50 59.79274 17.77785 4831 ft 206 kts 90°
2026-04-30 21:50 59.79165 17.80720 4347 ft 213 kts 90°
2026-04-30 21:50 59.79055 17.83633 3821 ft 215 kts 91°
2026-04-30 21:51 59.78941 17.86607 3294 ft 217 kts 91°
2026-04-30 21:51 59.78825 17.89592 2885 ft 212 kts 91°
2026-04-30 21:51 59.78707 17.92405 2723 ft 196 kts 94°
2026-04-30 21:51 59.78287 17.94836 2601 ft 181 kts 126°
2026-04-30 21:52 59.77257 17.96055 2477 ft 174 kts 174°
2026-04-30 21:52 59.76067 17.95886 2364 ft 171 kts 195°
2026-04-30 21:52 59.74915 17.95373 2241 ft 171 kts 193°
2026-04-30 21:52 59.73751 17.94953 2081 ft 168 kts 192°
2026-04-30 21:53 59.72611 17.94555 1761 ft 165 kts 192°
2026-04-30 21:53 59.71497 17.94171 1452 ft 160 kts 191°
2026-04-30 21:53 59.70413 17.93801 1059 ft 158 kts 191°
2026-04-30 21:53 59.69366 17.93311 732 ft 149 kts 193°
2026-04-30 21:54 59.68392 17.93000 519 ft 135 kts 187°
2026-04-30 21:54 59.67484 17.92683 356 ft 131 kts 189°
2026-04-30 21:54 59.66590 17.92356 189 ft 132 kts 188°
2026-04-30 21:54 59.65755 17.92062 150 ft 112 kts 193°
2026-04-30 21:55 59.65150 17.91922 145 ft 62 kts 164°
2026-04-30 21:55 59.64887 17.92197 141 ft 19 kts 103°
2026-04-30 21:55 59.64902 17.92378 140 ft 5 kts 117°